Location: Ahstedt
(52.2048°N, 10.1060°E)
Time: 20:55:12
(UTC+00:00)

COSMOS 2406 - Pass Details

Date: 18 January 2026
Orbit: 843 x 861 km, 71.0° (Epoch: 16 February)

Event Time Altitude Azimuth Distance (km) Brightness Sun altitude
Exits shadow 04:15:51 25° 352° (N) 1,674 4.6 -27.4°
Maximum altitude 04:18:45 43° 48° (NE) 1,198 4.2 -26.9°
Drops below altitude 10° 04:24:11 10° 119° (ESE) 2,494 6.4 -26.1°
Sets 04:26:46 0° 127° (SE) 3,429 7.2 -25.7°
